TIME,DELAY(SENSOR),PRES,T(CTD),SAL,OXYGEN,RAWTEMP,T(OPTODE),TCPHASE,FLUOR,BETA(BETA700),BETA(BETA412),BETA(BETA440),CDOM,C(CSC),ED(ED411.90),ED(ED443.80),ED(ED489.40),ED(ED554.70),LU(LU412.20),LU(LU443.80),LU(LU489.40),LU(LU555.00),COMP,TILTX,TILTX(TILTY),CHECK
1351437896,5803,497.5299987792969000,17.5109996795654300,36.4664993286132800,231.1179962158203000,171.4102935791015600,17.5104503631591800,31.1409206390380860,50,100,72,66,60,13350,2146956534,2147514468,2147267382,2147465682,2147084507,2146956068,2147651565,2147123894,929,-1,8,31672
1351438017,5805,485.6199951171875000,17.6056003570556640,36.4869003295898440,233.6764984130859400,168.3132019042968800,17.6039104461669920,30.9736595153808600,51,101,70,67,60,13350,2146957202,2147515392,2147265197,2147464201,2147087798,2146953206,2147660352,2147116242,2684,-1,8,5838
1351438130,5804,474.5899963378906000,17.6868991851806640,36.5007019042968750,234.5800933837890600,165.7207031250000000,17.6821498870849600,30.8948593139648440,50,101,72,66,61,13350,2146958564,2147513664,2147266048,2147462701,2147089115,2146956726,2147649444,2147127360,1107,-1,8,43712
1351438240,5805,464.0499877929687500,17.7315998077392580,36.5097999572753900,235.1425933837890600,164.2205963134765600,17.7274208068847660,30.8474693298339840,50,99,71,67,60,13349,2146956800,2147513344,2147265472,2147464512,2147087305,2146956361,2147652342,2147118262,2988,-1,8,51662
1351438361,5806,452.8900146484375000,17.7966995239257800,36.5194015502929700,235.5057067871093800,162.0536956787109400,17.7928295135498050,30.8005905151367200,50,99,72,67,60,13347,2146958528,2147515821,2147266176,2147464228,2147087296,2146958400,2147648896,2147122468,1199,-1,8,25386
1351438484,5803,441.8399963378906000,17.8542003631591800,36.5297012329101560,235.6526031494140600,160.0695037841797000,17.8527393341064450,30.7669105529785160,50,100,71,66,61,13348,2146955264,2147513069,2147265590,2147463881,2147087396,2146958710,2147652800,2147122112,3021,-1,8,9106
1351438605,5803,431.1300048828125000,17.9006004333496100,36.5368995666503900,235.9210968017578000,158.6029968261718800,17.8970108032226560,30.7343807220459000,50,100,72,66,60,13348,2146958290,2147514715,2147264813,2147462957,2147085293,2146955904,2147653238,2147127853,1447,-1,8,27957
1351438729,5803,420.2500000000000000,17.9493007659912100,36.5447006225585940,236.2469024658203000,156.9714965820312500,17.9462795257568360,30.6971492767334000,50,101,72,67,59,13347,2146959259,2147513709,2147263296,2147460443,2147088704,2146962678,2147652306,2147123456,3463,-1,9,65464
1351438850,5807,409.6700134277344000,17.9843997955322270,36.5503997802734400,236.0343017578125000,155.8441009521484400,17.9803199768066400,30.6921806335449220,51,100,71,67,61,13347,2146957952,2147510802,2147263405,2147460342,2147083227,2146958939,2147651602,2147126564,1731,-1,8,62179
1351438982,5808,398.1400146484375000,18.0303993225097660,36.5563011169433600,235.7993011474609400,154.3218994140625000,18.0262908935546880,30.6828308105468750,50,101,70,67,60,13345,2146955264,2147513380,2147264978,2147461805,2147084928,2146957476,2147655158,2147121380,1348,-1,8,50003
1351439105,5807,387.3200073242187500,18.0564994812011720,36.5597991943359400,235.5180053710937500,153.4875030517578000,18.0514907836914060,30.6854095458984380,50,100,71,67,61,13346,2146958893,2147514779,2147263826,2147459282,2147087414,2146961270,2147656822,2147124105,1745,-1,8,57094
1351439226,5808,376.5400085449219000,18.0821990966796880,36.5629997253418000,235.1490936279297000,152.6217956542968800,18.0776405334472660,30.6914596557617200,50,99,70,67,60,13347,2146957577,2147512877,2147263030,2147459529,2147082541,2146962029,2147649618,2147125120,46,-1,8,49130
1351439350,5805,365.4200134277344000,18.1191005706787100,36.5671005249023440,234.6714935302734400,151.4022979736328000,18.1144790649414060,30.6980991363525400,50,101,72,67,60,13346,2146953965,2147514368,2147262500,2147460169,2147087716,2146957741,2147651885,2147130148,2030,-1,8,1675
1351439471,5807,354.6400146484375000,18.1571006774902340,36.5708999633789060,234.0211944580078000,150.0941009521484400,18.1539993286132800,30.7122592926025400,51,101,71,66,61,13344,2146957257,2147513682,2147261430,2147458084,2147086656,2146960987,2147656868,2147130368,532,-1,9,4814
1351439603,5804,342.9400024414062500,18.2105007171630860,36.5772018432617200,233.7680053710937500,148.3459014892578000,18.2068099975585940,30.7011394500732420,51,101,72,68,61,13344,2146957513,2147517906,2147264301,2147460141,2147086802,2146962404,2147654573,2147130038,2461,-1,8,39517
1351439726,5804,332.0899963378906000,18.2504005432128900,36.5812988281250000,233.1473999023437500,147.0675964355468800,18.2454395294189450,30.7142696380615230,50,101,70,67,60,13344,2146956598,2147513097,2147264758,2147460416,2147088347,2146964242,2147649517,2147131602,1373,-1,9,18588
1351439847,5806,321.7600097656250000,18.3057994842529300,36.5867004394531250,232.5296936035156200,145.1898040771484400,18.3021793365478500,30.7190208435058600,50,101,71,67,60,13344,2146955337,2147512338,2147259337,2147457435,2147086061,2146959744,2147652827,2147129965,3490,-1,9,26592
1351439982,5808,310.5100097656250000,18.3756999969482420,36.5932998657226560,231.4490966796875000,142.9411010742187500,18.3701400756835940,30.7419204711914060,51,101,71,67,60,13343,2146959296,2147510491,2147260736,2147457517,2147085604,2146959332,2147655003,2147125659,1762,-1,8,15269
1351440114,5807,300.0400085449219000,18.4410991668701170,36.5934982299804700,229.9288940429687500,140.7008972167968800,18.4378604888916000,30.7863998413085940,50,100,71,67,60,13343,2146956772,2147513792,2147263177,2147456374,2147089435,2146962459,2147655030,2147128969,268,-1,8,2292
1351440290,5805,286.2900085449219000,18.5354003906250000,36.5945014953613300,229.1336975097656200,137.7651062011718800,18.5266094207763670,30.7867393493652340,50,101,70,67,61,13340,2146957476,2147511478,2147264877,2147458203,2147086875,2146963492,2147652096,2147125641,1544,-1,8,9621
1351440412,5804,275.0400085449219000,18.6060009002685550,36.5793991088867200,230.2714996337890600,135.0964965820312500,18.6073093414306640,30.6949195861816400,50,101,72,67,61,13342,2146956544,2147511945,2147263853,2147458112,2147086710,2146968813,2147657600,2147131748,3333,-1,8,51647
1351440533,5806,263.9700012207031000,18.6422004699707030,36.5551986694335940,234.3325042724609400,134.0173950195312500,18.6399497985839840,30.4832801818847660,50,100,71,67,59,13344,2146955190,2147512274,2147262317,2147455990,2147088539,2146966628,2147654290,2147130560,2088,-2,8,10466
1351440656,5807,252.9299926757812500,18.8076992034912100,36.5769996643066400,233.2239990234375000,128.3885040283203000,18.8102302551269530,30.4620990753173830,51,100,70,67,60,13344,2146955693,2147514148,2147264621,2147458258,2147084882,2146964708,2147661366,2147131108,715,-1,9,7565
1351440777,5804,241.8399963378906200,18.9232997894287100,36.5746002197265600,234.3699035644531200,124.5736007690429700,18.9256896972656250,30.3565902709960940,50,100,71,66,60,13343,2146956717,2147513106,2147260726,2147456822,2147077952,2146967716,2147668553,2147127579,2892,-1,9,15644
1351440890,5805,231.4700012207031200,19.0613994598388670,36.5750007629394500,237.0646972656250000,120.3275985717773400,19.0542392730712900,30.1725101470947270,50,100,71,66,59,13344,2146956982,2147513618,2147262006,2147454308,2147086656,2146967552,2147658486,2147127424,1459,-1,9,35694
1351441011,5806,220.3999938964843800,19.1105995178222660,36.5691986083984400,239.6145019531250000,118.6588973999023400,19.1047706604003900,30.0308799743652340,50,99,71,66,59,13343,2146957174,2147513865,2147261988,2147456502,2147079232,2146971218,2147659419,2147128000,526,-1,8,41644
1351441132,5807,209.4400024414062500,19.1867008209228500,36.5737991333007800,241.5251007080078000,116.2827987670898400,19.1767406463623050,29.9110794067382800,52,101,72,67,60,13343,2146955968,2147514157,2147261796,2147454802,2147085933,2146972269,2147669686,2147130267,1952,-1,9,44984
1351441256,5803,198.3999938964843800,19.2917995452880860,36.5764999389648440,242.2819061279297000,112.6961975097656200,19.2854003906250000,29.8295707702636720,52,102,70,67,60,13341,2146955968,2147513499,2147260873,2147453924,2147088585,2146978669,2147674514,2147129801,708,-1,8,2559
1351441311,5805,193.5399932861328000,19.3197002410888670,36.5772018432617200,242.9028930664062500,112.0253982543945300,19.3057308197021500,29.7924995422363280,53,102,72,66,59,13338,2146952448,2147513170,2147263241,2147451300,2147081234,2146982125,2147697572,2147130066,3368,-1,8,37805
1351441366,5806,188.6699981689453000,19.3332996368408200,36.5721015930175800,244.8379974365234400,110.9347000122070300,19.3387908935546880,29.6900806427001950,51,102,71,67,59,13339,2146960329,2147514651,2147266523,2147450944,2147079360,2146992228,2147706148,2147131556,2394,-1,9,10686
1351441421,5808,183.7899932861328000,19.3714008331298830,36.5736007690429700,244.9781036376953000,109.8223037719726600,19.3724994659423830,29.6692104339599600,53,103,71,67,59,13338,2146952960,2147515145,2147265115,2147454326,2147088704,2147004416,2147734939,2147131136,1778,-1,8,64589
1351441476,5807,178.9700012207031200,19.3736000061035160,36.5674018859863300,244.2908935546875000,109.7029037475586000,19.3761196136474600,29.6989097595214840,54,106,71,66,60,13333,2146957403,2147510290,2147265261,2147451126,2147088009,2147018925,2147761874,2147133796,1232,-1,9,17029
1351441550,5805,172.8300018310547000,19.4316005706787100,36.5719985961914060,242.1739044189453000,108.0160980224609400,19.4272594451904300,29.7735290527343750,55,103,71,68,60,13333,2146958326,2147515529,2147263753,2147451830,2147088960,2147035373,2147781394,2147136950,449,-1,9,10676
1351441605,5806,168.5700073242187500,19.4776000976562500,36.5760002136230500,241.4828033447265600,106.5616989135742200,19.4713497161865230,29.7865104675292970,55,102,72,67,59,13333,2146954843,2147517942,2147265618,2147453531,2147089984,2147046592,2147813961,2147137590,3401,-1,9,40200
1351441660,5810,164.3899993896484400,19.4934997558593750,36.5752983093261700,240.9178009033203000,105.8535995483398400,19.4928207397460940,29.8033409118652340,56,103,72,68,61,13332,2146956763,2147514642,2147269211,2147452992,2147086262,2147046262,2147809819,2147138962,2646,-1,8,50109
1351441715,5805,160.3300018310547000,19.5415000915527340,36.5775985717773440,240.3256988525390600,104.3396987915039000,19.5387306213378900,29.8110599517822270,57,105,72,68,60,13328,2146957942,2147515666,2147267885,2147451264,2147093412,2147055478,2147820150,2147139154,2056,-1,9,35516
1351441770,5804,156.3200073242187500,19.6105003356933600,36.5863990783691400,240.2201995849609400,101.8952026367187500,19.6128807067871100,29.7844009399414060,60,105,72,67,61,13330,2146957147,2147516617,2147271177,2147450212,2147097252,2147090148,2147873746,2147141293,1560,-1,9,9312
1351441825,5804,152.4400024414062500,19.6863994598388670,36.5924987792968750,240.2120056152343800,99.5266571044921900,19.6847400665283200,29.7539196014404300,62,108,72,67,61,13326,2146956827,2147519131,2147269961,2147450633,2147098185,2147102400,2147901028,2147142930,1302,-1,9,14550
1351441903,5804,147.4499969482422000,19.8005008697509770,36.6063995361328100,238.9815063476562500,95.8181610107421900,19.7972908020019530,29.7628307342529300,63,107,70,67,60,13322,2146956324,2147515739,2147271826,2147452114,2147102747,2147125549,2147937142,2147146560,1038,-1,9,14722
1351441980,5803,143.4400024414062500,19.9286994934082030,36.6225013732910160,237.2713928222656200,91.6956329345703100,19.9224605560302730,29.7892208099365230,65,106,73,69,60,13326,2146955712,2147518272,2147279021,2147452342,2147117659,2147182637,2148037952,2147152237,699,-2,9,16827
1351442057,5805,139.7599945068359400,20.0398998260498050,36.6234016418457000,237.5749053955078000,87.9946136474609400,20.0348796844482420,29.7270393371582030,71,111,71,68,61,13318,2146960283,2147521700,2147278326,2147449115,2147125193,2147223817,2148092132,2147157787,291,-1,8,42612
1351442156,5805,135.4799957275390600,20.1448001861572270,36.6218986511230500,239.4163055419922000,84.2758789062500000,20.1478900909423830,29.5932903289794920,78,111,73,68,60,13311,2146957504,2147523593,2147279104,2147451126,2147130249,2147222299,2148075126,2147158555,83,-1,9,30751
1351442246,5803,131.8699951171875000,20.2686004638671880,36.6297988891601560,241.7225036621093800,80.6380004882812500,20.2584896087646500,29.4406700134277340,84,113,71,68,59,13308,2146956617,2147522587,2147278281,2147450304,2147137581,2147208082,2148045540,2147155428,2797,-1,9,15448
1351442345,5804,127.6100006103515600,20.3931007385253900,36.6342010498046900,243.1103973388672000,76.5478210449218800,20.3829097747802730,29.3249893188476560,90,114,72,68,60,13304,2146958564,2147522230,2147275684,2147447378,2147142034,2147226057,2148054848,2147158281,2250,-2,9,163
1351442433,5806,123.6399993896484400,20.4936008453369140,36.6399993896484400,244.4141998291015600,73.2544631958007800,20.4831295013427730,29.2241001129150400,92,113,72,68,60,13304,2146959798,2147526729,2147280393,2147448210,2147162294,2147257554,2148085376,2147158948,1653,-1,9,14246
1351442524,5805,119.3399963378906200,20.5666999816894530,36.6441001892089840,244.7359008789062500,70.7633132934570300,20.5589599609375000,29.1778602600097660,98,110,71,67,60,13300,2146959067,2147523904,2147274112,2147445860,2147147209,2147216731,2148006985,2147156480,1327,-1,9,56783
1351442601,5805,115.8499984741211000,20.6392002105712900,36.6529006958007800,245.8780975341797000,68.0615005493164000,20.6412391662597660,29.0922203063964840,96,110,71,67,60,13304,2146957769,2147522020,2147273334,2147446418,2147155008,2147202651,2147978678,2147153051,1421,-1,9,58447
1351442700,5806,111.9899978637695300,20.7119998931884770,36.6533012390136700,244.1363067626953000,65.9445571899414000,20.7057304382324220,29.1430397033691400,100,114,72,68,60,13300,2146958701,2147524096,2147276434,2147445385,2147179684,2147256640,2148048082,2147160128,1817,-1,9,2890
1351442842,5806,107.7699966430664000,20.8570003509521500,36.6551017761230500,246.5644989013672000,60.6036987304687500,20.8685092926025400,28.9668407440185550,103,112,72,68,59,13291,2146961526,2147526710,2147283794,2147445814,2147252754,2147425216,2148264905,2147177865,1557,-2,9,54186
1351442963,5807,103.9400024414062500,21.1905002593994140,36.6612014770507800,249.5581970214843800,50.3403282165527340,21.1816596984863280,28.7053699493408200,114,113,71,68,59,13286,2146963072,2147531574,2147287259,2147445942,2147286491,2147487725,2148336841,2147184868,949,-2,9,13749
1351443073,5807,99.7399978637695300,21.4004001617431640,36.6562995910644500,253.6425018310547000,43.6816101074218750,21.3850803375244140,28.4454803466796880,114,116,71,69,60,13285,2146965421,2147530166,2147285028,2147444434,2147291337,2147462738,2148271186,2147180169,149,-1,9,29312
1351443150,5808,95.7200012207031200,21.5342998504638670,36.6525993347168000,256.0130004882812500,39.2658996582031250,21.5200901031494140,28.2896995544433600,108,115,73,69,60,13279,2146966372,2147533796,2147286354,2147444635,2147327378,2147498733,2148287296,2147186962,2645,-2,9,60394
1351443205,5804,92.3000030517578100,21.5897006988525400,36.6365013122558600,256.9566040039062500,37.3624687194824200,21.5783100128173830,28.2262191772460940,112,115,72,68,58,13275,2146966628,2147532324,2147287195,2147442514,2147385508,2147596662,2148385874,2147193499,2022,-1,9,62577
1351443260,5806,89.0699996948242200,21.7322006225585940,36.6530990600585940,255.9425048828125000,33.4283714294433600,21.6987094879150400,28.2199001312255860,118,117,72,69,59,13269,2146968557,2147536100,2147294427,2147445257,2147456192,2147687350,2148481069,2147206720,1984,-1,9,33785
1351443315,5808,86.3499984741211000,21.8565998077392580,36.6669998168945300,244.4492950439453000,28.5166893005371100,21.8491306304931640,28.6558208465576170,139,122,72,70,60,13253,2146979245,2147551222,2147316443,2147445888,2147682468,2148097380,2148944210,2147252690,1830,-1,9,58395
1351443370,5808,84.3499984741211000,22.0431995391845700,36.6688995361328100,237.9306030273437500,22.7710208892822270,22.0252494812011720,28.8774604797363280,140,122,72,68,60,13250,2146984795,2147558893,2147325604,2147444589,2147791808,2148271222,2149130349,2147274166,1912,-1,9,52917
1351443425,5803,83.4700012207031200,22.0841999053955080,36.6641006469726560,237.7234039306640600,21.3430194854736330,22.0690498352050780,28.8691806793212900,148,121,73,68,60,13246,2146985764,2147553755,2147320475,2147444196,2147760594,2148206921,2149058569,2147267446,1314,-2,9,49558
1351443724,5808,81.3600006103515600,22.3183002471923830,36.5889015197753900,253.4161987304687500,14.4665498733520500,22.2801094055175780,28.0910606384277340,123,116,75,69,60,13260,2146991716,2147575652,2147347776,2147440694,2148076891,2148693110,2149578962,2147323812,976,-1,9,17476
1351443826,5808,78.8899993896484400,22.4178009033203120,36.5906982421875000,257.2091979980469000,10.1091604232788090,22.4139804840087900,27.8778190612792970,102,116,71,69,58,13261,2147005888,2147583872,2147354285,2147444278,2148280393,2148957613,2149817316,2147353664,299,-1,9,65400
1351443892,5805,77.0800018310546900,22.7852001190185550,36.5858993530273440,257.9704895019531000,-0.0761210918426514,22.7273101806640620,27.7208099365234380,104,117,72,69,58,13255,2147003785,2147580562,2147348854,2147441380,2148287853,2148905051,2149707931,2147345033,3477,-2,9,56033
1351443969,5802,75.5899963378906200,22.9818000793457030,36.5895996093750000,257.6286010742187500,-7.0638208389282230,22.9426097869873050,27.6490592956542970,107,116,72,68,59,13260,2147004416,2147574500,2147340598,2147439286,2148193938,2148713124,2149475017,2147319186,2916,-2,9,11617
1351444147,5807,73.3199996948242200,23.2381000518798830,36.6088981628418000,256.1563110351562500,-15.2324800491333000,23.1946697235107420,27.6099491119384770,101,119,74,68,57,13256,2147000612,2147577389,2147341842,2147439049,2148258011,2148757467,2149487387,2147324132,2476,-2,9,30006
1351444435,5807,70.9300003051757800,23.5904006958007800,36.5974006652832000,258.3070983886719000,-27.5987091064453120,23.5770301818847660,27.3700294494628900,100,123,73,68,58,13250,2146993993,2147564763,2147318838,2147431899,2147985965,2148293220,2148962834,2147270537,823,-1,9,11644
1351444490,5805,69.0400009155273400,23.7042999267578120,36.5858001708984400,258.3855895996094000,-31.3083896636962900,23.6919307708740230,27.3214092254638670,101,120,72,69,58,13248,2147010395,2147584905,2147337124,2147435218,2148380608,2148809508,2149445577,2147330660,1476,-1,10,53517
1351444578,5803,67.5800018310546900,23.9155998229980470,36.5605010986328100,257.4407958984375000,-36.8031692504882800,23.8622703552246100,27.2933998107910160,102,122,72,71,58,13244,2147026038,2147598299,2147356626,2147435785,2148737170,2149246720,2149832530,2147374061,1377,0,9,44236
1351444677,5807,65.6900024414062500,24.1142997741699220,36.5348014831543000,255.5697021484375000,-41.6956710815429700,24.0141105651855470,27.3110599517822270,109,124,72,70,56,13238,2147021010,2147592466,2147347794,2147434203,2148642532,2149089499,2149662281,2147357723,1334,0,9,5845
1351444920,5807,62.6599998474121100,24.9624996185302730,36.3292999267578100,247.3016967773437500,-69.2020263671875000,24.8708801269531250,27.3237094879150400,105,133,72,69,56,13225,2147043501,2147616649,2147372672,2147434523,2149118537,2149677385,2150195931,2147420233,2345,0,8,41074
1351445219,5807,61.7000007629394500,25.0674991607666000,36.2991981506347660,244.1732025146484400,-75.0073013305664000,25.0524101257324220,27.3874206542968750,103,125,74,71,57,13231,2147054253,2147631433,2147384841,2147433718,2149406235,2150050587,2150543707,2147467693,2565,0,8,51066
1351445706,5808,59.0200004577636700,25.2318000793457030,36.2477989196777340,242.1000061035156200,-80.3093338012695300,25.2184295654296880,27.4128303527832030,83,119,72,70,55,13234,2147118363,2147697289,2147450313,2147435053,2150730925,2151656923,2151921645,2147628352,74,-2,9,53319
1351445783,5808,57.2900009155273440,25.2313003540039060,36.2472000122070300,241.7901000976562500,-80.6343612670898400,25.2286090850830080,27.4224395751953120,82,118,73,70,55,13237,2147132251,2147707949,2147461275,2147435328,2151019693,2151876370,2152013732,2147648384,3537,-1,9,52291
1351445882,5804,55.5200004577636700,25.2306003570556640,36.2467002868652340,241.5491027832031200,-80.6616134643554700,25.2294597625732420,27.4326992034912100,79,121,74,70,55,13239,2147176146,2147749120,2147497097,2147438665,2152094573,2153033179,2152885750,2147744694,3322,-1,9,14528
1351446072,5808,52.1300010681152340,25.2303009033203120,36.2477989196777340,241.5238952636718800,-80.5877532958984400,25.2271499633789060,27.4345893859863280,77,119,73,70,56,13232,2147201014,2147767232,2147500882,2147439012,2152713481,2153519003,2153079853,2147768393,2089,-1,10,53680
1351446105,5807,50.4599990844726560,25.2304992675781250,36.2449989318847660,241.6533966064453000,-80.6348571777343800,25.2286205291748050,27.4283790588378900,77,120,74,69,55,13236,2147257526,2147827657,2147561197,2147445485,2154214390,2155172388,2154395492,2147931044,1938,-1,8,57019
1351446138,5807,48.6899986267089840,25.2301998138427730,36.2450981140136700,241.5440063476562500,-80.6636734008789000,25.2295303344726560,27.4328403472900400,76,118,72,68,56,13237,2147320448,2147884425,2147616868,2147450505,2155735670,2156793590,2155681865,2148113883,1829,-2,8,17577
1351446183,5808,46.3300018310546900,25.2299003601074220,36.2450981140136700,241.6340942382812500,-80.6848068237304700,25.2301902770996100,27.4286003112792970,76,120,74,70,56,13232,2147362011,2147923776,2147642267,2147453476,2156659181,2157719606,2156350308,2148223515,1871,-2,9,20128
1351446216,5809,44.4599990844726560,25.2311000823974600,36.2447013854980500,241.6564941406250000,-80.6702575683593800,25.2297306060791000,27.4278297424316400,76,119,73,69,55,13231,2147396946,2147959561,2147675885,2147455917,2157564352,2158654646,2157046555,2148321974,1791,-2,8,28863
1351446249,5808,42.8600006103515600,25.2299003601074220,36.2448005676269500,241.5099029541015600,-80.6508865356445300,25.2291297912597660,27.4346199035644530,76,118,73,70,54,13236,2147401846,2147955419,2147674971,2147459876,2157715254,2158735387,2157044306,2148341558,1868,-2,8,7230
1351446294,5805,40.6100006103515600,25.2294998168945300,36.2444000244140600,241.7480010986328000,-80.6461563110351600,25.2289791107177730,27.4240608215332030,77,120,73,70,55,13235,2147471570,2148026413,2147735872,2147470692,2159605312,2160693677,2158529490,2148570706,2208,-2,9,64042
1351446339,5806,38.3400001525878900,25.2313995361328120,36.2444992065429700,241.6464996337890600,-80.7141189575195300,25.2311096191406250,27.4277992248535160,77,119,73,69,54,13236,2147534720,2148087369,2147796653,2147475099,2161123154,2162329289,2159775634,2148744877,2832,-2,9,20296
1351446374,5804,36.6500015258789060,25.2320995330810550,36.2447013854980500,241.7875976562500000,-80.7462768554687500,25.2321205139160160,27.4211196899414060,77,118,73,69,55,13238,2147632329,2148172416,2147885668,2147495040,2163608082,2164765769,2161605558,2149122322,3068,-3,8,34769
1351446419,5806,34.3100013732910160,25.2327995300292970,36.2449989318847660,241.7669982910156200,-80.7658462524414000,25.2327308654785160,27.4217700958251950,76,118,72,69,55,13236,2147824438,2148362349,2148053174,2147527808,2168509577,2169874624,2165539693,2149791862,2962,-3,8,60623
1351446452,5809,32.3800010681152340,25.2322998046875000,36.2447013854980500,241.8161926269531200,-80.7549362182617200,25.2323894500732420,27.4197692871093750,77,118,72,69,56,13233,2147935734,2148466029,2148141449,2147543360,2171423021,2172805019,2167772105,2150266569,3126,-3,8,19402
1351446485,5807,30.6100006103515620,25.2315006256103500,36.2447013854980500,241.8168029785156200,-80.7447967529296900,25.2320709228515620,27.4198493957519530,76,118,73,69,54,13233,2148031542,2148553371,2148227309,2147563437,2173928466,2175288100,2169641691,2150576100,3164,0,9,27176